Wind_Speed
8 7 7 7 8 9 9 9 10 10 10 10 9 9 9 8 8 8 8 7 6 6 6 7 7 7 7 7 7 6 6 6 5 5 5 4 4 4 5 5 5 5 5
7 7 6 6 7 8 9 9 9 10 10 10 10 9 9 8 8 8 8 7 7 7 7 6 7 7 7 7 7 6 5 6 5 5 5 4 5 5 5 5 5 5 5
7 6 6 6 6 7 8 9 9 9 9 9 9 9 9 8 8 8 7 7 7 7 7 6 6 6 6 6 6 5 5 6 5 5 5 5 5 5 5 5 4 4 4
7 6 6 6 6 6 7 8 8 9 9 9 9 9 8 8 7 7 7 7 7 7 7 7 6 6 6 6 5 5 5 5 5 5 5 5 5 4 4 4 4 4 4
7 5 5 5 5 6 6 7 8 8 8 8 8 8 8 8 8 7 7 7 7 7 7 7 6 6 6 6 5 5 5 5 5 5 5 5 4 4 4 4 3 3 3
7 5 5 5 5 5 6 6 7 7 7 7 8 8 8 8 8 7 7 7 6 6 7 7 6 5 5 5 5 5 5 5 5 5 4 4 4 4 3 3 3 3 3
7 5 4 4 4 4 5 6 6 6 7 7 7 7 7 8 8 7 7 7 6 7 7 7 6 6 5 5 5 5 5 5 5 5 4 4 4 4 3 3 2 2 2
7 5 4 4 4 4 5 5 5 6 6 7 7 7 7 7 8 7 7 7 7 7 6 6 6 6 5 5 5 5 5 5 5 4 4 3 3 3 3 3 2 2 2
8 6 5 5 4 4 4 4 5 5 6 6 7 7 7 7 7 7 7 7 7 6 6 6 6 6 6 5 5 5 5 5 5 4 4 3 3 3 3 2 2 2 2
8 7 7 6 5 5 5 5 5 5 6 6 6 6 6 7 7 7 7 7 7 6 6 6 5 5 5 5 5 5 4 4 4 4 4 3 3 3 3 2 2 2 2
9 8 7 6 6 6 5 5 5 5 5 5 6 6 6 6 6 6 6 6 6 6 6 5 5 5 5 5 4 5 4 4 3 3 3 3 3 2 2 2 2 1 1
9 8 7 7 7 6 6 5 5 5 5 5 5 5 5 6 6 6 6 6 6 6 5 5 5 5 4 4 4 4 4 3 3 2 2 2 2 2 2 2 2 1 1
10 9 8 7 7 6 5 5 4 4 4 4 4 5 5 5 5 5 5 5 5 5 4 4 4 4 3 3 3 3 3 3 2 2 2 2 2 2 1 1 1 1 1
12 11 9 7 6 5 5 4 4 4 3 3 3 4 4 5 4 4 4 4 4 3 3 3 3 3 3 3 3 3 3 2 2 2 2 2 2 1 1 0 0 1 1
13 12 10 8 6 5 5 4 4 4 3 3 3 4 4 4 4 4 4 3 2 2 2 2 3 2 2 2 2 2 2 1 1 1 1 1 1 0 0 0 1 1 2
13 12 11 9 7 6 6 4 4 4 4 3 3 3 4 4 4 4 4 4 3 2 2 2 3 2 2 1 2 1 1 1 1 1 1 1 1 1 1 1 2 2 3
14 13 12 11 9 7 6 5 5 4 4 3 2 2 3 3 4 4 4 4 3 3 2 3 3 3 2 2 2 2 2 2 2 2 2 2 2 2 2 2 3 3 3
15 13 13 12 10 9 7 6 5 3 3 2 2 2 2 2 3 3 4 3 3 3 3 4 4 3 3 3 3 3 3 3 3 3 3 3 3 4 4 4 4 4 4
15 14 13 12 11 10 8 7 6 4 3 2 2 2 2 2 2 3 3 3 3 3 4 4 4 4 4 4 3 3 3 4 4 4 4 5 5 5 5 5 6 6 6
16 15 14 13 13 12 10 9 8 5 4 3 2 1 1 2 2 3 3 3 4 4 4 4 4 5 5 5 5 4 5 5 5 6 6 6 6 7 7 7 7 7 7
15 15 14 13 13 12 11 10 8 7 5 4 3 2 2 1 2 3 4 4 4 4 5 5 5 5 5 6 6 6 6 6 7 7 7 7 8 8 9 9 9 9 10
15 15 14 13 13 12 11 10 9 7 6 5 4 3 2 1 2 3 4 5 5 5 5 6 6 6 6 7 7 8 8 8 8 8 9 9 9 10 10 10 10 11 11
15 14 13 13 12 12 11 10 9 7 6 5 5 4 3 3 3 3 4 4 5 5 5 6 7 7 7 7 8 8 9 9 10 10 11 11 11 12 12 12 12 12 12
14 14 13 13 12 12 11 10 9 8 7 6 6 5 4 4 3 3 3 4 4 5 6 6 7 7 8 8 8 9 9 10 11 11 12 12 12 13 13 13 13 14 14
13 13 13 13 13 12 11 10 9 8 8 7 6 5 5 5 4 4 5 5 5 5 6 6 7 7 8 8 9 9 10 11 11 12 13 14 14 15 15 14 15 16 16
13 13 13 13 13 12 11 10 9 9 8 8 7 7 6 6 6 6 6 6 6 6 6 7 7 7 8 9 10 11 12 12 13 13 14 15 15 16 16 16 16 17 17
Wind_Direction
78 81 89 95 99 101 102 103 104 104 103 101 100 101 99 99 103 106 106 107 105 99 96 98 97 99 99 94 98 101 104 106 109 107 107 108 108 104 99 98 108 112 110
77 82 88 93 98 102 104 106 106 105 104 102 102 102 103 105 106 106 106 105 102 101 100 99 99 99 98 99 97 99 105 108 107 103 98 93 93 93 93 97 103 105 108
76 81 88 94 99 104 107 107 106 105 106 106 105 105 106 107 108 107 107 105 104 105 105 104 105 104 104 106 102 99 102 104 99 97 97 93 88 89 90 99 103 99 101
76 84 91 98 103 109 111 108 108 107 107 108 107 108 109 108 110 113 111 110 109 109 110 109 110 110 110 110 105 103 102 101 97 101 95 89 90 93 102 102 103 102 104
72 81 92 100 107 112 113 112 113 112 109 110 110 111 111 113 116 118 115 112 111 112 112 110 110 110 112 110 108 106 105 99 99 99 93 90 92 94 99 101 103 106 107
67 78 89 99 108 114 116 115 115 116 114 112 112 113 115 118 118 119 118 118 116 114 113 113 111 109 109 109 106 103 106 102 98 97 95 91 91 93 95 100 106 113 109
63 72 82 91 102 117 123 121 117 117 119 115 112 114 116 118 119 116 117 118 118 112 110 108 108 108 107 108 107 105 101 101 100 95 95 95 94 95 96 99 99 113 118
57 62 70 74 91 110 122 123 118 117 121 121 117 115 117 118 119 117 117 115 112 112 110 110 108 108 107 107 110 106 102 103 99 93 95 97 100 99 101 102 101 112 124
55 57 65 68 79 95 109 117 119 120 124 123 120 119 118 116 118 119 119 115 111 113 114 113 110 108 109 107 107 106 102 102 96 93 97 97 99 105 109 104 94 102 127
53 54 61 67 73 83 92 107 115 119 125 128 124 124 122 122 122 121 119 118 116 116 114 115 113 108 107 108 105 100 102 105 102 100 100 96 99 107 113 109 98 97 123
47 50 56 63 66 77 83 93 105 116 123 127 125 128 127 127 128 127 126 124 121 120 120 119 120 117 115 114 108 101 103 108 106 105 101 95 98 103 114 119 115 109 117
45 48 54 61 66 71 76 84 98 111 120 125 129 130 128 127 128 127 128 127 127 126 125 126 125 123 116 114 113 110 108 113 106 106 103 99 101 98 117 115 122 110 108
47 49 54 58 61 63 68 76 92 108 122 132 138 138 136 132 130 131 131 127 129 132 134 138 139 128 125 126 120 118 117 113 102 98 107 110 111 99 106 111 112 97 105
44 45 48 50 51 50 52 58 72 86 107 130 145 149 147 144 142 144 138 133 134 138 142 143 145 143 141 140 132 128 123 110 93 90 104 117 117 115 112 132 202 207 258
41 40 40 40 44 40 38 46 60 71 91 113 136 154 156 157 161 159 160 155 153 153 157 152 158 158 156 154 150 138 132 115 117 125 126 138 142 179 200 302 281 264 270
37 37 38 39 40 39 41 49 61 73 90 104 133 156 162 166 169 172 178 181 189 191 186 187 191 189 182 177 178 164 163 173 176 201 216 239 257 269 264 286 294 288 285
35 35 35 35 37 39 45 52 59 70 86 93 116 147 168 180 182 184 188 197 206 209 206 205 203 206 219 224 218 217 222 222 222 241 254 254 261 272 272 276 282 282 285
33 33 32 34 36 36 42 48 52 58 78 89 101 132 159 183 196 193 195 203 214 225 218 210 212 218 227 232 232 234 240 242 246 255 267 269 270 271 271 275 278 280 281
27 30 31 30 30 28 32 33 33 45 59 81 112 121 161 183 197 203 208 211 225 230 223 219 221 225 228 233 240 246 252 253 253 260 271 275 274 270 270 272 276 280 281
22 24 26 27 27 27 31 28 31 35 47 55 75 86 149 187 207 218 226 224 229 232 227 227 231 235 238 244 251 258 259 261 263 266 270 272 272 269 271 274 276 279 280
19 20 24 25 26 26 25 25 29 31 35 41 40 40 58 139 217 235 235 234 236 239 239 237 242 244 248 252 257 260 262 263 266 268 270 270 272 270 272 275 277 278 279
17 18 21 22 22 22 21 21 23 24 28 27 21 18 12 341 299 278 258 243 248 252 249 243 245 249 255 256 259 261 265 267 268 273 277 278 277 274 273 277 280 280 281
11 12 13 15 15 16 14 12 12 16 18 14 9 7 1 336 308 291 272 257 259 260 256 255 254 258 262 261 261 265 267 269 272 275 279 281 281 280 278 279 279 278 279
9 12 13 12 10 9 9 7 3 6 9 6 357 353 344 335 315 298 291 284 277 270 267 264 259 261 264 269 271 271 269 270 274 276 281 280 281 283 282 281 280 279 280
10 10 13 11 9 6 5 5 2 359 359 357 348 340 334 327 313 304 298 293 287 281 275 274 265 264 268 271 273 274 273 274 277 281 282 281 282 284 284 285 283 282 281
7 7 8 8 7 6 4 3 1 357 353 353 352 346 334 327 319 305 296 290 289 284 280 278 274 273 275 276 276 277 277 277 277 280 282 283 283 283 285 286 283 283 281
Height
5895 5895 5894 5894 5894 5893 5893 5893 5893 5892 5892 5892 5892 5893 5893 5893 5893 5893 5893 5893 5894 5893 5893 5894 5894 5894 5894 5895 5895 5895 5896 5896 5896 5896 5896 5896 5896 5896 5896 5896 5896 5896 5896
5896 5895 5895 5895 5895 5894 5894 5894 5894 5894 5893 5893 5893 5893 5894 5894 5894 5894 5894 5894 5894 5894 5894 5895 5895 5896 5896 5896 5896 5897 5897 5897 5897 5897 5897 5897 5897 5897 5897 5897 5897 5897 5897
5897 5896 5896 5896 5896 5895 5895 5895 5895 5895 5894 5894 5894 5894 5895 5895 5895 5895 5895 5895 5895 5895 5895 5896 5896 5897 5897 5897 5897 5898 5898 5898 5898 5898 5898 5898 5898 5898 5898 5898 5898 5898 5898
5898 5898 5897 5897 5897 5896 5896 5896 5896 5896 5895 5895 5895 5895 5895 5896 5896 5896 5896 5896 5896 5896 5897 5897 5897 5898 5898 5898 5898 5899 5899 5899 5899 5899 5899 5899 5899 5899 5899 5899 5899 5899 5899
5899 5899 5898 5898 5898 5898 5897 5897 5897 5897 5896 5896 5896 5896 5896 5896 5896 5897 5897 5897 5897 5897 5898 5898 5898 5899 5899 5899 5899 5900 5900 5900 5900 5900 5900 5900 5900 5900 5900 5900 5900 5900 5901
5900 5900 5899 5899 5899 5898 5898 5898 5898 5897 5897 5897 5897 5897 5897 5897 5897 5897 5898 5898 5898 5898 5898 5899 5899 5899 5900 5900 5900 5900 5900 5901 5901 5901 5901 5901 5901 5901 5901 5901 5901 5901 5901
5901 5901 5900 5900 5899 5899 5899 5899 5898 5898 5898 5898 5898 5898 5898 5898 5898 5898 5898 5898 5898 5899 5899 5900 5900 5900 5900 5901 5901 5901 5901 5902 5902 5902 5902 5902 5902 5902 5902 5902 5902 5902 5902
5903 5902 5901 5901 5900 5900 5899 5899 5899 5899 5899 5899 5899 5899 5899 5899 5899 5899 5899 5899 5899 5900 5900 5900 5901 5901 5901 5901 5902 5902 5902 5902 5902 5902 5902 5903 5903 5903 5903 5903 5903 5903 5903
5904 5903 5902 5901 5901 5900 5900 5900 5900 5899 5899 5900 5900 5900 5900 5900 5900 5900 5900 5900 5900 5901 5901 5901 5902 5902 5902 5902 5902 5903 5903 5903 5903 5903 5903 5903 5903 5903 5903 5903 5903 5903 5903
5905 5904 5903 5903 5902 5901 5901 5900 5900 5900 5900 5900 5900 5900 5900 5900 5901 5901 5901 5901 5901 5901 5902 5902 5902 5903 5903 5903 5903 5904 5904 5904 5904 5904 5904 5904 5904 5904 5904 5904 5904 5904 5903
5907 5906 5905 5904 5903 5902 5901 5901 5901 5901 5900 5901 5901 5901 5901 5901 5901 5901 5901 5902 5902 5902 5903 5903 5903 5903 5903 5904 5904 5904 5904 5904 5904 5904 5904 5904 5904 5904 5904 5904 5904 5904 5904
5908 5907 5906 5905 5904 5903 5902 5902 5901 5901 5901 5901 5901 5901 5901 5901 5901 5902 5902 5902 5903 5903 5903 5904 5904 5904 5904 5904 5904 5905 5905 5905 5905 5905 5905 5905 5905 5905 5904 5904 5904 5904 5904
5910 5908 5907 5906 5905 5904 5903 5902 5902 5901 5901 5901 5901 5901 5902 5902 5902 5902 5903 5903 5903 5903 5904 5904 5904 5904 5904 5905 5905 5905 5905 5905 5905 5905 5905 5905 5905 5905 5905 5905 5904 5904 5904
5911 5909 5908 5906 5905 5905 5904 5903 5902 5902 5901 5901 5901 5902 5902 5902 5902 5903 5903 5903 5903 5904 5904 5904 5904 5905 5905 5905 5905 5905 5905 5905 5905 5905 5905 5905 5905 5905 5905 5905 5905 5904 5904
5913 5911 5909 5907 5906 5905 5904 5903 5902 5902 5902 5902 5902 5902 5902 5903 5903 5903 5903 5904 5904 5904 5904 5904 5905 5905 5905 5905 5905 5905 5905 5905 5905 5905 5905 5905 5905 5905 5905 5905 5904 5904 5904
5915 5912 5910 5908 5907 5906 5905 5904 5903 5902 5902 5902 5902 5902 5902 5903 5903 5903 5904 5904 5904 5904 5904 5905 5905 5905 5905 5905 5905 5905 5905 5905 5905 5905 5905 5905 5905 5905 5905 5905 5904 5904 5904
5916 5914 5912 5909 5908 5906 5905 5904 5904 5903 5902 5902 5902 5902 5902 5903 5903 5903 5903 5904 5904 5904 5904 5904 5905 5905 5905 5905 5905 5905 5905 5905 5905 5905 5905 5905 5904 5904 5904 5904 5904 5903 5903
5918 5916 5914 5911 5909 5907 5906 5905 5904 5903 5902 5902 5902 5902 5902 5903 5903 5903 5903 5903 5904 5904 5904 5904 5904 5905 5905 5905 5905 5905 5905 5905 5904 5904 5904 5904 5904 5903 5903 5903 5903 5902 5902
5919 5917 5915 5912 5910 5909 5907 5905 5904 5903 5903 5902 5902 5902 5902 5902 5902 5902 5903 5903 5903 5903 5903 5904 5904 5904 5904 5904 5904 5904 5904 5904 5904 5904 5903 5903 5903 5902 5902 5902 5901 5901 5901
5921 5918 5916 5914 5911 5909 5907 5906 5905 5904 5903 5903 5902 5902 5902 5902 5902 5902 5902 5902 5902 5903 5903 5903 5903 5903 5903 5904 5903 5904 5903 5903 5903 5903 5902 5902 5901 5901 5901 5900 5900 5899 5899
5922 5919 5917 5915 5913 5911 5908 5907 5906 5905 5904 5903 5903 5902 5902 5902 5901 5901 5901 5901 5902 5902 5902 5902 5902 5902 5902 5902 5902 5902 5902 5902 5902 5901 5901 5900 5900 5900 5899 5899 5898 5898 5897
5923 5921 5918 5916 5914 5912 5910 5908 5907 5906 5905 5904 5903 5902 5901 5901 5901 5901 5900 5901 5901 5901 5901 5901 5901 5901 5901 5901 5901 5901 5901 5901 5900 5899 5899 5898 5898 5898 5897 5897 5896 5895 5895
5924 5922 5919 5917 5915 5913 5911 5909 5908 5906 5905 5904 5903 5902 5902 5901 5901 5900 5900 5900 5900 5900 5900 5900 5900 5900 5900 5900 5899 5899 5899 5899 5898 5898 5897 5896 5896 5895 5895 5894 5894 5893 5892
5925 5922 5920 5918 5916 5914 5912 5910 5908 5907 5905 5904 5903 5902 5902 5901 5900 5900 5899 5899 5899 5898 5898 5898 5898 5898 5898 5898 5897 5897 5897 5896 5896 5896 5895 5894 5893 5892 5892 5891 5890 5889 5889
5925 5923 5921 5919 5916 5914 5912 5910 5909 5907 5906 5904 5903 5902 5901 5900 5899 5899 5898 5898 5897 5897 5897 5896 5896 5896 5896 5896 5896 5895 5894 5894 5893 5893 5892 5891 5891 5890 5889 5888 5887 5886 5885
5926 5924 5922 5919 5917 5915 5913 5911 5909 5907 5906 5904 5903 5902 5901 5900 5899 5898 5897 5897 5896 5896 5895 5895 5895 5894 5894 5894 5893 5893 5892 5892 5891 5890 5889 5888 5887 5886 5885 5884 5883 5882 5881